Regional Weather Roundup
Issued by NWS Green Bay, WI

Home | Current Version | Previous Version | Graphics & Text | Print | Product List | Glossary Off
Versions: 1 2 3 4 5 6 7 8 9 10 11 12 13 14 15 16 17 18 19 20 21 22 23 24 25 26 27 28 29 30 31 32 33 34 35 36 37 38 39 40 41 42 43 44 45 46 47 48 49 50

000
ASUS43 KGRB 230411
RWRGRB

NORTH-CENTRAL AND NORTHEAST WISCONSIN REGIONAL WEATHER ROUNDUP
NATIONAL WEATHER SERVICE GREEN BAY WI
1100 PM CDT TUE MAY 22 2018

WIZ005-009-010>012-018-019-230500-
NORTH CENTRAL WISCONSIN

CITY           SKY/WX    TMP DP  RH WIND       PRES   REMARKS
IRONWOOD       FAIR      52  51  97 CALM      30.07R
MANITOWISH WTR NOT AVBL
ARBOR VITAE    FAIR      62  56  82 CALM      30.08S
EAGLE RIVER    FAIR      54  48  80 CALM      30.07S
LAND O LAKES   FAIR      51  45  79 CALM      30.09S
RHINELANDER    FAIR      60  55  83 W7        30.08R
PHILLIPS       FAIR      57  56  95 CALM      30.08F
ANTIGO         FAIR      60  57  90 W9        30.08S
TOMAHAWK       FAIR      59  54  83 CALM      30.09R
MERRILL        FAIR      58  57  94 CALM      30.09R
$$

WIZ013-073-230500-
NORTHEAST WISCONSIN

CITY           SKY/WX    TMP DP  RH WIND       PRES   REMARKS
IRON MOUNTAIN  FAIR      63  52  67 CALM      30.04R
MARINETTE      FAIR      63  56  78 SW7       30.03S
OCONTO         FAIR      60  56  87 CALM      30.04R
$$

WIZ017-030-035>037-045-230500-
CENTRAL WISCONSIN

CITY           SKY/WX    TMP DP  RH WIND       PRES   REMARKS
MEDFORD        FAIR      58  54  88 CALM      30.09S
WAUSAU         FAIR      62  58  86 NW3       30.07R
MOSINEE        FAIR      57  55  94 W6        30.10R
MARSHFIELD     FAIR      56  55  97 W5        30.08S
WISC RAPIDS    FAIR      57  55  93 CALM      30.10R
STEVENS POINT  FAIR      59  58  95 W5        30.10R
WAUPACA        FAIR      62  58  87 SW5       30.08S
SHAWANO        FAIR      66  58  74 SW5       30.06R
CLINTONVILLE   FAIR      64  56  75 CALM      30.06S
WAUTOMA        FAIR      59  57  93 W5        30.10R
$$

WIZ038-039-048-051-230500-
FOX VALLEY

CITY           SKY/WX    TMP DP  RH WIND       PRES   REMARKS
NWS GREEN BAY  FAIR      63  58  83 S3        30.06R
APPLETON       PTCLDY    63  55  77 W8        30.06R
OSHKOSH        FAIR      62  57  83 SW5       30.08R
FOND DU LAC    FAIR      61  56  83 SW6       30.09R
$$

WIZ022-050-052-230500-
EAST CENTRAL WISCONSIN

CITY           SKY/WX    TMP DP  RH WIND       PRES   REMARKS
EPHRAIM        FAIR      58  49  73 S5        30.04S
WASHINGTON ISL CLOUDY    52  48  88 CALM      30.04S
STURGEON BAY   FAIR      60  52  74 S7        30.05S
MANITOWOC      FAIR      51  48  89 CALM      30.08R
SHEBOYGAN      FAIR      56  54  93 SW3       30.08R
$$

LMZ563-521-522-541>543-230500-
LAKESHORE

STATION/POSITION TIME  TEMP    WIND        PRES    VSBY  WAVE
                       AIR SEA DIR/SP/G                  HT/PER
                 (UTC) (F)     (DEG/KT/KT) (MB)    (MI)  (FT/S)
SHEBOYGAN LKSHOR 0400   61     250/  9/ 10 1018.3R
KEWAUNEE LKSHORE 0342   53     160/  4/  5 1017.1R
NORTHPORT PIER   0340   57     200/  2/  4 1017.3R
N MID LAKE BUOY  0350   40 37  110/  4/  4 1018.0R         0
SISTER BAY LKSHO 0312   58     160/  9/ 10   N/A
MENOMINEE LKSHOR 0336   62     180/  5/  8 1016.3S
$$




USA.gov is the U.S. government's official web portal to all federal, state and local government web resources and services.